Home > Weather > Thompson > Past weeks

Flag for Canada Past Weather in Thompson, Manitoba, Canada — Yesterday and Last 2 Weeks

Now
37 °F

Drizzle. Fog.


Feels Like: 34 °F
Forecast: 33 / 60 °F
Wind: 5 mph from East

Location: Thompson

Current Time: May 28, 2016 at 8:50:00 AM

Latest Report: May 28, 2016 at 8:00 AM


Visibility: 8 mi

Pressure: 30.24 "Hg

Humidity: 93%

Dew Point: 36 °F

Location of ThompsonLocation

Past Weather in Thompson — Graph

°F

Thompson Temperature Yesterday

Maximum temperature yesterday: 45 °F (at 3:00 PM)
Minimum temperature yesterday: 32 °F (at 5:00 AM)
Average temperature yesterday: 38 °F

High & Low Weather Summary for the Past Weeks

 TemperatureHumidityPressure
High81 °F (May 17, 3:00 PM)100% (May 13, 11:00 PM)30.35 "Hg (May 13, 11:00 PM)
Low18 °F (May 13, 7:00 AM)20% (May 17, 3:00 PM)29.53 "Hg (May 22, 1:00 PM)
Average48 °F67%30.00 "Hg
* Reported May 13 7:00 AM — May 28 7:00 AM, Thompson, Weather by CustomWeather, © 2016

Note: Actual official high and low records may vary slightly from our data, if they occured in-between our weather recording intervals... More about our weather records

Advertising

Thompson Weather History for the Previous 24 Hours

Scroll right to see more
 ConditionsComfort  
Time TempWeatherWind HumidityBarometerVisibility
7:00 AM
Sat, May 28
37 °FChilly.6 mph93%30.24 "Hg6 mi
6:00 AM37 °FLight rain. Overcast.5 mph87%30.24 "Hg8 mi
5:00 AM37 °FLight rain. Overcast.5 mph87%30.24 "Hg10 mi
4:00 AM39 °FOvercast.7 mph81%30.25 "Hg15 mi
3:00 AM39 °FOvercast.8 mph81%30.26 "Hg15 mi
2:00 AM39 °FOvercast.3 mph81%30.25 "Hg15 mi
1:00 AM39 °FOvercast.6 mph81%30.25 "Hg15 mi
12:00 AM41 °FOvercast.10 mph76%30.25 "Hg15 mi
11:00 PM
Fri, May 27
41 °FOvercast.8 mph76%30.24 "Hg15 mi
10:00 PM41 °FOvercast.9 mph76%30.23 "Hg15 mi
9:00 PM43 °FOvercast.9 mph71%30.23 "Hg15 mi
8:00 PM43 °FPartly sunny.9 mph71%30.22 "Hg15 mi
7:00 PM45 °FPartly sunny.8 mph66%30.22 "Hg15 mi
6:00 PM45 °FPartly sunny.10 mph66%30.23 "Hg15 mi
5:00 PM45 °FOvercast.10 mph61%30.23 "Hg15 mi
4:00 PM45 °FOvercast.10 mph61%30.23 "Hg15 mi
3:00 PM45 °FOvercast.7 mph66%30.23 "Hg15 mi
2:00 PM43 °FOvercast.9 mph66%30.23 "Hg15 mi
1:00 PM39 °FOvercast.10 mph70%30.22 "Hg15 mi
12:00 PM37 °FOvercast.10 mph75%30.22 "Hg15 mi
11:00 AM36 °FOvercast.10 mph81%30.22 "Hg15 mi
10:00 AM34 °FLight snow. Overcast.15 mph87%30.22 "Hg15 mi
9:00 AM32 °FLight snow. Ice fog.14 mph93%30.21 "Hg1 mi
8:00 AM32 °FLight snow. Ice fog.15 mph93%30.19 "Hg3 mi
Weather by CustomWeather, © 2016

See weather overviewHow to use our weather pages